SL-14 DEB, 45289

Orbit data source: Space-Track

SL-14 DEB, 45289 is space debris in LEO originally from a launch on Thu, 15 Aug 1991 UTC launched from the Plesetsk Missile And Space Complex (PKMTR). Debris objects in space refer to the collection of defunct objects orbiting the Earth. Examples of debris include non-operational satellites, rocket bodies, and fragments generated from explosions, collisions, or faulty payload assembly.

Loading next visibility...
SL-14 DEB details
Identifier
45289, 1991-056AB
Orbit
LEO
Last TLE update18 hours ago
Origin
Flag of CISRosgidromet (CIS)
ManufacturerUnknown
MissionSpacecraft
Bus & MotorUnknown
MassUnknown
Launch date (UTC)
1991-08-15 (33 years ago)
Launch vehicleUnknown
Launch site
Plesetsk Missile And Space Complex (PKMTR)
Object type
Payload
Rocket body
Debris
Shape & HBRUnknown
Radar Cross SectionMedium (>0.1 m² and <1 m²)

Expand to show TLE details & history

TLE from 18 hours ago
0 SL-14 DEB
1 45289U 91056AB  24360.69303509 -.00000333  00000-0 -13638-2 0  9993
2 45289  82.5373 230.8585 0177677  44.0811 317.4299 12.82873140227206
Epoch: 2024-12-25T16:37Z
Definitive object data (Epoch: 2024-12-25T16:37:58.231Z)
Latitude-0.0001°
Longitude-113.31727°
Altitude1,232.956 km
Speed7.285 km/s
True Right ascension15h 23m 26s
True Declination0° 00' 00"
Sunlit
Object was in daylight at TLE epoch
Visualization TLE readout
Latitude-3.1461°
Longitude66.59942°
Altitude1,438.187 km
Speed7.093 km/s
Apparent Right ascension01h 21m 21s
Apparent Declination-25° 03' 10"
Sunlit
Object is in full shadow
Visualization observer readout
Local Sidereal Time09:46:07
Azimuth271.446° WNW
Elevation-43°
Doppler factor1
Orbital elements
Apogee altitude1,464.138 km
Perigee altitude1,190.325 km
Semi-major axis7,705.369 km
Eccentricity0.0177677
Inclination82.5373°
RAAN230.8585°
Arg. of periapsis44.0811°
True anomaly316.0298°
Mean anomaly317.4299°
Eccentric anomaly316.73214°
Mean motion3.20888 °/min
BSTAR-0.0013638
Orbital period112.19 mins
Loading maneuver chart data...
Loading historical data...
Loading historical data...
Loading historical data...
Loading historical data...
Loading historical data...
Loading historical data...
Loading historical data...

SL-14 DEB Visibility forecast

Observer location: undefined°, undefined

Span
Click to sort rows by Start time (UTC) header in descending order
Start Az.
Max El. time (UTC)
Max El. Az.
Max El.
End time (UTC)
End Az.
11 mins2024-12-26 15:11:56.568Z142.556° SSE2024-12-26 15:17:56.568Z81.913° E27.354°2024-12-26 15:22:56.568Z31.56° NE
12 mins2024-12-26 17:04:56.568Z218.061° SW2024-12-26 17:10:56.568Z292.589° NW34.488°2024-12-26 17:16:56.568Z353.6° N
13 mins2024-12-27 02:55:56.568Z4.009° NNE2024-12-27 03:01:56.568Z87.865° E41.065°2024-12-27 03:08:56.568Z157.294° SSE
10 mins2024-12-27 04:49:56.568Z317.893° NNW2024-12-27 04:53:56.568Z280.222° WNW23.628°2024-12-27 04:59:56.568Z228.117° WSW
|